Date,TemperatureHighF,TemperatureAvgF,TemperatureLowF,DewpointHighF,DewpointAvgF,DewpointLowF,HumidityHigh,HumidityAvg,HumidityLow,PressureMaxIn,PressureMinIn,WindSpeedMaxMPH,WindSpeedAvgMPH,GustSpeedMaxMPH,PrecipitationSumIn
2013-6-1,88.3,78.2,73.2,79.2,75.6,72.9,99,92,73,30.03,29.96,11,2,11,1.87
2013-6-2,90.7,79.7,71.0,81.0,74.6,33.5,99,86,63,30.00,29.92,11,2,11,0.00
2013-6-3,89.1,79.6,71.6,78.5,74.9,71.0,99,86,69,30.03,29.91,10,2,10,0.09
2013-6-4,86.4,79.5,73.2,78.2,75.7,72.6,99,89,73,30.05,29.95,7,1,7,0.03
2013-6-5,86.0,81.7,78.8,79.7,77.3,75.1,91,87,78,30.02,29.90,9,3,9,0.04
2013-6-6,81.0,79.8,75.9,79.2,78.0,73.6,99,94,88,29.91,29.80,13,7,14,0.88
2013-6-7,92.1,77.8,73.6,79.5,74.9,72.9,99,91,64,29.98,29.83,12,3,12,0.71
2013-6-8,89.2,79.0,73.2,82.3,76.6,72.9,99,93,78,30.10,29.96,9,2,9,0.59
2013-6-9,91.4,84.3,79.0,78.9,76.7,75.1,92,79,66,30.12,30.04,10,6,12,0.00
2013-6-10,93.6,85.0,80.1,79.8,77.6,75.8,89,79,64,30.09,30.01,13,5,13,0.00
2013-6-11,92.7,83.9,79.7,80.3,77.7,74.6,92,82,62,30.09,29.35,11,4,11,0.00
2013-6-12,95.2,82.3,76.5,80.9,77.3,75.4,99,86,62,30.08,30.02,7,1,10,0.00
2013-6-13,93.0,81.8,73.8,79.7,75.3,71.2,99,82,61,30.05,29.94,10,2,10,0.00
2013-6-14,98.4,83.0,74.8,78.1,74.2,71.0,99,77,47,29.97,29.88,11,3,11,0.00
2013-6-15,93.9,84.1,74.1,78.4,75.8,73.0,99,77,58,30.05,29.92,9,3,9,0.00
2013-6-16,95.4,84.9,74.1,80.5,76.9,73.2,99,78,59,30.09,30.02,11,3,11,0.00
2013-6-17,95.0,86.2,77.0,79.6,77.0,74.3,92,75,59,30.08,30.01,13,4,13,0.00
2013-6-18,93.9,85.8,78.3,78.5,76.8,74.1,92,75,59,30.07,29.99,13,4,13,0.00
2013-6-19,93.7,84.7,76.5,81.1,77.0,74.4,99,79,61,30.05,29.99,12,3,12,0.01
2013-6-20,94.1,84.0,73.9,78.2,74.8,69.0,89,75,57,30.09,30.02,13,3,13,0.00
2013-6-21,95.2,86.2,78.6,77.4,75.4,73.7,86,71,56,30.13,30.03,13,5,13,0.00
2013-6-22,95.4,86.1,78.8,76.9,74.9,72.8,85,70,53,30.11,30.04,10,5,10,0.00
2013-6-23,93.4,84.8,79.5,79.1,75.3,70.6,85,74,59,30.22,30.05,13,6,13,0.05
2013-6-24,94.8,86.2,80.2,77.7,74.9,72.0,81,70,55,30.17,30.08,13,6,13,0.00
2013-6-25,94.3,84.9,77.9,80.1,76.5,72.4,94,77,60,30.13,30.05,13,6,13,0.06
2013-6-26,94.3,85.0,78.8,77.8,76.0,73.2,89,75,56,30.08,30.01,13,5,13,0.03
2013-6-27,93.4,82.8,76.6,80.5,76.0,72.6,94,80,61,30.06,29.95,10,2,10,0.30
2013-6-28,92.7,82.4,73.9,78.5,75.3,71.2,99,81,55,29.99,29.86,13,3,13,0.33
2013-6-29,92.7,81.3,73.9,79.3,76.1,72.7,99,86,62,29.93,29.81,14,3,14,0.08
2013-6-30,92.1,81.0,75.4,78.9,75.8,72.3,98,85,60,29.94,29.84,14,4,14,0.35